TimeCST,TemperatureF,Dew PointF,Humidity,Sea Level PressureIn,VisibilityMPH,Wind Direction,Wind SpeedMPH,Gust SpeedMPH,PrecipitationIn,Events,Conditions,WindDirDegrees,DateUTC
12:53 AM,19.9,10.9,68,30.12,10.0,SSE,4.6,-,N/A,,Clear,150,2012-12-30 06:53:00
1:53 AM,23.0,10.9,60,30.08,10.0,SSW,9.2,-,N/A,,Clear,200,2012-12-30 07:53:00
2:53 AM,25.0,14.0,63,30.05,10.0,SSW,17.3,-,N/A,,Clear,200,2012-12-30 08:53:00
3:53 AM,25.0,14.0,63,30.04,10.0,South,10.4,-,N/A,,Clear,190,2012-12-30 09:53:00
4:53 AM,19.0,10.0,68,30.04,10.0,South,4.6,-,N/A,,Clear,190,2012-12-30 10:53:00
5:53 AM,17.1,9.0,71,30.04,10.0,Calm,Calm,-,N/A,,Clear,0,2012-12-30 11:53:00
6:53 AM,12.9,7.0,77,30.04,10.0,SSE,3.5,-,N/A,,Clear,150,2012-12-30 12:53:00
7:53 AM,10.0,5.0,80,30.02,10.0,South,10.4,-,N/A,,Clear,170,2012-12-30 13:53:00
8:53 AM,17.1,10.0,74,29.97,10.0,South,12.7,-,N/A,,Clear,170,2012-12-30 14:53:00
9:53 AM,19.9,12.0,71,29.96,10.0,WSW,13.8,-,N/A,,Clear,240,2012-12-30 15:53:00
10:53 AM,21.9,12.0,66,29.98,10.0,WNW,19.6,-,N/A,,Clear,300,2012-12-30 16:53:00
11:53 AM,21.0,14.0,74,29.97,10.0,WNW,21.9,-,N/A,,Clear,290,2012-12-30 17:53:00
12:53 PM,23.0,15.1,72,29.96,10.0,WNW,20.7,26.5,N/A,,Clear,300,2012-12-30 18:53:00
1:53 PM,25.0,16.0,69,29.97,10.0,NW,18.4,-,N/A,,Clear,310,2012-12-30 19:53:00
2:53 PM,27.0,17.1,66,30.00,10.0,WNW,20.7,27.6,N/A,,Clear,300,2012-12-30 20:53:00
3:53 PM,27.0,17.1,66,30.04,10.0,WNW,12.7,21.9,N/A,,Clear,300,2012-12-30 21:53:00
4:53 PM,24.1,16.0,71,30.08,10.0,NW,15.0,-,N/A,,Clear,320,2012-12-30 22:53:00
5:53 PM,23.0,16.0,74,30.13,10.0,WNW,13.8,-,N/A,,Clear,300,2012-12-30 23:53:00
6:53 PM,21.9,16.0,78,30.15,10.0,NW,13.8,-,N/A,,Clear,310,2012-12-31 00:53:00
7:53 PM,19.9,15.1,81,30.16,10.0,NW,12.7,-,N/A,,Clear,320,2012-12-31 01:53:00
8:28 PM,19.4,15.8,86,30.06,10.0,NW,12.7,-,N/A,,Mostly Cloudy,310,2012-12-31 02:28:00
8:35 PM,19.4,15.8,86,30.06,10.0,NW,11.5,-,N/A,,Scattered Clouds,310,2012-12-31 02:35:00
8:44 PM,19.4,15.8,86,30.07,10.0,NNW,6.9,-,N/A,,Mostly Cloudy,330,2012-12-31 02:44:00
8:53 PM,19.9,17.1,89,30.17,10.0,NW,6.9,-,N/A,,Mostly Cloudy,320,2012-12-31 02:53:00
9:53 PM,19.0,16.0,88,30.18,10.0,NW,6.9,-,N/A,,Partly Cloudy,310,2012-12-31 03:53:00
10:53 PM,19.0,17.1,92,30.21,10.0,West,5.8,-,N/A,,Clear,260,2012-12-31 04:53:00
11:53 PM,18.0,15.1,88,30.22,10.0,Calm,Calm,-,N/A,,Partly Cloudy,0,2012-12-31 05:53:00